C/2022 U2 ( ATLAS )

Japanese version
Home page
Updated on March 27, 2023

---------------------------------------------------------------------

* Profile

Discovery Date October 25, 2022
Magnitude 19.1 mag
Discoverer Asteroid Terrestrial-Impact Last Alert System (ATLAS) search program

* Pictures

* Orbital Elements

Epoch 2023 Feb. 25.0 TT = JDT 2460000.5
T 2023 Jan. 14.22177 TT                                 Rudenko
q   1.3280294            (2000.0)            P               Q
z  +0.0104240      Peri.  147.91008     -0.18795382     -0.76578323
 +/-0.0000011      Node   304.47589     +0.66684813     +0.36023679
e   0.9861566      Incl.   48.24965     +0.72110119     -0.53273399
>From 979 observations 2022 Oct. 25-2023 Mar. 17, mean residual 0".5.

* Finding Charts

* Magnitudes Graph

        m1 = 8.5 + 5 log d + 25.0 log r

---------------------------------------------------------------------

The orbital elements are published on M.P.E.C. 2023-F81.
The charts are made with StellaNavigator Ver.10 (AstroArts).
The magnitudes graphs are made with Comet for Windows.

---------------------------------------------------------------------

Copyright(C) Seiichi Yoshida (comet@aerith.net). All rights reserved.